Location: Ferintosh
(52.7647°N, 112.9692°W)
Time: 19:19:08
(UTC+00:00)

A-11 Canister half - Pass Details

Date: 27 May 2024
Orbit: 1515 x 1685 km, 47.2° (Epoch: 12 June)

Event Time Altitude Azimuth Distance (km) Brightness Sun altitude
Rises 07:04:54 0° 196° (SSW) 4,815 - -15.7°
Reaches altitude 10° 07:08:50 10° 183° (S) 3,804 - -15.7°
Exits shadow 07:12:33 20° 163° (SSE) 3,090 10.0 -15.8°
Maximum altitude 07:15:53 24° 135° (SE) 2,834 10.0 -15.8°
Drops below altitude 10° 07:22:46 10° 88° (E) 3,722 11.0 -15.8°
Sets 07:26:32 0° 75° (ENE) 4,688 11.7 -15.8°
